Regional Weather Roundup
Issued by NWS Grand Forks, ND

Home | Current Version | Previous Version | Text Only | Print | Product List | Glossary Off
Versions: 1 2 3 4 5 6 7 8 9 10 11 12 13 14 15 16 17 18 19 20 21 22 23 24 25 26 27 28 29 30 31 32 33 34 35 36 37 38 39 40 41 42 43 44 45 46 47 48 49 50

000
ASUS43 KFGF 251731
RWRFGF
PRAIRIE TO PINES  WEATHER ROUNDUP
NATIONAL WEATHER SERVICE EASTERN NORTH DAKOTA/GRAND FORKS ND
1200 PM CDT SAT APR 25 2015

 **SATELLITE DATA USED TO AUGMENT SKY COVER AT AUTOMATED STATIONS**
 *****  WEATHER ACROSS EASTERN NORTH DAKOTA  *****

CITY           SKY/WX    TMP DP  RH WIND       PRES   REMARKS
GRAND FORKS    PTSUNNY   53  36  52 SE8       29.91S
GRAND FRKS AFB PTSUNNY   51  35  53 SE9       29.91S
GRAND FRKS NWS   N/A     55 N/A N/A E6          N/A
DEVILS LAKE    CLOUDY    50  36  57 E17       29.87S
FARGO          CLOUDY    48  37  65 E10       29.90R
WAHPETON ARPT  CLOUDY    45  36  70 E12       29.90R
$$

 ***** WEATHER ACROSS CENTRAL AND WESTERN NORTH DAKOTA  *****

CITY           SKY/WX    TMP DP  RH WIND       PRES   REMARKS
BISMARCK       CLOUDY    47  41  80 E13       29.81S
MINOT          CLOUDY    49  39  68 E16       29.81S
JAMESTOWN      CLOUDY    45  39  79 E13       29.85S
MINOT AFB      CLOUDY    48  46  93 SE14      29.81S
GARRISON         N/A     49  42  77 SE14      29.79S
WILLISTON      CLOUDY    50  42  74 SE17G23   29.74R
DICKINSON      CLOUDY    45  43  93 SE16      29.73R FOG
HETTINGER      FOG       44  42  93 SE13      29.75R VSB 1
$$

 *****  OTHER AIRPORT OBSERVATIONS IN OUR AREA  *****

CITY           SKY/WX    TMP DP  RH WIND       PRES   REMARKS
WALHALLA       FAIR      54  36  50 E10G21    29.91F
GRAFTON AIRPOR FAIR      54  36  50 SE9G16    29.92S
VALLEY CITY AR CLOUDY    45  45 100 SE13      29.88R
CANDO          CLOUDY    54  37  54 SE16      29.87S
CAVALIER APRT  FAIR      54  36  50 SE10G18   29.92S
GWINNER        CLOUDY    45  45 100 E13       29.87S
ROLLA          FAIR      50  36  57 SE15G21   29.88S
 ***** THE ABOVE OBSERVATIONS ARE NON NWS ARE NOT QUALITY
       CONTROLLED AND MAY MIS-REPORT RAIN FOR SNOW...
$$

  *****  WEATHER ACROSS NORTHERN MINNESOTA  *****

CITY           SKY/WX    TMP DP  RH WIND       PRES   REMARKS
FLAG ISLAND    SUNNY     46  27  46 SE7       29.97S
WARROAD        SUNNY     46  28  49 NE14      29.97F
ROSEAU         SUNNY     55  28  35 E14       29.94S
HALLOCK        SUNNY     57  34  41 E14G20    29.91S
THF RVR FALLS  SUNNY     55  34  44 E13G18    29.92S
BAUDETTE       SUNNY     55  27  34 E12       29.96S
WASKISH        SUNNY     57  32  38 E8G18     29.95S
CROOKSTON      SUNNY     55  36  47 SE15G21   29.91S
$$
  *****  WEATHER ACROSS CENTRAL AND WEST MINNESOTA  *****

CITY           SKY/WX    TMP DP  RH WIND       PRES   REMARKS
FOSSTON        PTSUNNY   57  34  41 SE9G20    29.91S
BEMIDJI        SUNNY     52  33  48 E13       29.93S
PARK RAPIDS    CLOUDY    52  34  50 E12       29.91R
ELBOW LAKE     CLOUDY    44  38  80 E10       29.88S
WADENA         MOSUNNY   50  37  62 E12G18    29.89S
DETROIT LAKES  SUNNY     54  37  54 SE15G21   29.90S
MOORHEAD       PTSUNNY   46  36  66 E7        29.91S
FERGUS FALLS   CLOUDY    46  34  61 SE8       29.90S
MORRIS MN      SUNNY     46  41  81 E14       29.86R
STAPLES        PTSUNNY   50  36  57 E13       29.90S
$$
  *****  WEATHER ELSEWHERE ACROSS MINNESOTA  *****

CITY           SKY/WX    TMP DP  RH WIND       PRES   REMARKS
DULUTH         CLOUDY    42  26  53 E15       29.97S
INTRNTL FALLS  SUNNY     50  23  34 E8        29.98S
ELY            SUNNY     50  14  23 N7        29.96F
CLOQUET        CLOUDY    43  25  49 E14       29.96F
WHEATON        PTSUNNY   43  39  87 E15       29.89S
BRAINERD       CLOUDY    46  34  62 NE12G17   29.93R
HIBBING        CLOUDY    44  21  40 E8        29.97R
ALEXANDRIA     CLOUDY    45  38  76 E10       29.89R
SAINT CLOUD    PTSUNNY   50  37  61 E14       29.88S
MINNEAPOLIS    PTSUNNY   54  37  52 E15G21    29.86S
$$

  *****  WEATHER ACROSS SOUTH DAKOTA  *****

CITY           SKY/WX    TMP DP  RH WIND       PRES   REMARKS
SIOUX FALLS    CLOUDY    55  43  63 E10       29.74R
BROOKINGS      CLOUDY    46  43  87 NE12      29.80S
WATERTOWN      CLOUDY    44  40  85 E12       29.81R FOG
HURON          CLOUDY    49  43  80 E9        29.79R
SISSETON         N/A     44  43  96 SE10      29.85R
ABERDEEN       CLOUDY    47  42  83 E13       29.82S
MITCHELL       CLOUDY    50  45  83 NE8       29.78R
PIERRE         CLOUDY    48  47  96 E14       29.74F FOG
MOBRIDGE       CLOUDY    47  43  86 E16       29.77R FOG
RAPID CITY     CLOUDY    47  46  97 SE10      29.71S FOG
$$

  *****  SOME WEATHER IN NEARBY STATES *****

CITY           SKY/WX    TMP DP  RH WIND       PRES   REMARKS
GLASGOW MT     CLOUDY    44  38  79 NW22      29.68R
GREAT FALLS MT MOSUNNY   46  31  55 VRB3      29.80R
CHEYENNE WY    MOSUNNY   58  30  34 VRB3      29.74F
SCOTTSBLUFF NE SUNNY     62  43  49 SE6       29.72S
OMAHA NE       CLOUDY    49  46  90 N16       29.67R
DES MOINES IA  CLOUDY    48  44  86 NE14G23   29.63S
DAVENPORT IA   LGT RAIN  45  42  89 E29G37    29.65F
CHICAGO IL     DRIZZLE   44  38  79 E13       29.77F
EAU CLAIRE WI  MOSUNNY   52  25  35 NE20      29.87S
LA CROSSE WI   CLOUDY    50  37  61 E12       29.84F
$$

  *****  SOME NATIONAL WEATHER *****

CITY           SKY/WX    TMP DP  RH WIND       PRES   REMARKS
LA GUARDIA NY  MOSUNNY   52  23  32 NW13G20   29.82F
RALEIGH NC     LGT RAIN  56  54  93 S8        29.83F FOG
ATLANTA GA     PTSUNNY   73  64  73 W8        29.76F
NEW ORLEANS LA TSTM      81  72  74 W12       29.80R
OKLAHOMA CITY  SUNNY     77  51  40 SW10      29.66S
ALBUQUERQUE NM PTSUNNY   57  34  41 W7        29.95F
SALT LAKE CITY PTSUNNY   51  38  60 S8        29.79F
LOS ANGELES CA PTSUNNY   61  49  64 W10       30.00R
BOISE ID       SUNNY     51  33  50 NW10      29.81S
SEATTLE WA     PTSUNNY   45  39  79 S7        29.98R
$$

*** WEATHER ACROSS MANITOBA...SASKATCHEWAN AND ONTARIO ***
                ***ONTARIO***

CITY           SKY/WX    TMP DP  RH WIND       PRES   REMARKS
GERALDTON      SUNNY     41  18  38 NE7       30.07F
THUNDER BAY    MOSUNNY   46  18  31 E12       30.07S
SIOUX LOOKOUT  MOSUNNY   48  19  32 E7        30.04F
TORONTO        MOSUNNY   46  25  42 VRB3      29.92F
BIG TROUT LK   SUNNY     32  21  64 SW3       30.17F
PICKLE LAKE    SUNNY     41  14  33 CALM      30.09F
DRYDEN         CLOUDY    43  21  42 NE6       30.04S
KENORA         MOSUNNY   48  21  34 SE13      30.00F
$$
                *** MANITOBA***

CITY           SKY/WX    TMP DP  RH WIND       PRES   REMARKS
BRANDON        PTSUNNY   54  37  54 E10G17    29.89F
DAUPHIN        CLOUDY    50  36  57 SE13G20   29.92S
ISLAND LAKE    PTSUNNY   45  21  39 SE10      30.09
PILOT MOUND      N/A     52  37  58 SE12        N/A
THE PAS        CLOUDY    30  27  86 NE8       30.05R WCI  23
THOMPSON       FLURRIES  28  27  93 NE3       30.11R
WINNIPEG       MOSUNNY   54  34  47 SE16      29.95F
LYNN LAKE      SUNNY     32   9  37 VRB3      30.10F
CHURCHILL      CLOUDY    28  14  54 S9        30.25S WCI  20
GILLAM         MOSUNNY   41  16  36 SE12G18   30.14S
$$
                ***SASKATCHEWAN***

CITY           SKY/WX    TMP DP  RH WIND       PRES   REMARKS
ESTEVAN        CLOUDY    43  39  87 E21G26    29.79S FOG
KINDERSLEY     CLOUDY    30  28  93 NE20      29.83S WCI  18
LLOYDMINSTER   FLURRIES  32  19  59 E17G23    29.93R WCI  21
PRINCE ALBERT  CLOUDY    32  23  69 NE16      29.99S WCI  21
REGINA         LGT RAIN  45  43  93 E13       29.77S FOG
YORKTON        PTSUNNY   46  37  71 E12       29.87R
N. BATTLEFORD  CLOUDY    32  27  80 E13G18    29.94S WCI  22
LA RONGE       PTSUNNY   34  14  44 NE13      30.10S WCI  25
SASKATOON      CLOUDY    28  27  93 NE22G28   29.91S WCI  15
SWIFT CURRENT  CLOUDY    36  34  93 NW9       29.75R
$$
NOTE: THESE ARE AUTOMATED STATIONS WITH LIMITED QUALITY CONTROL
      "FAIR" INDICATES FEW OR NO CLOUDS BELOW 12,000 FEET WITH NO
      SIGNIFICANT WEATHER AND/OR OBSTRUCTIONS TO VISIBILITY.
      SKY/WX - SKY CONDITION AND SIGNIFICANT WEATHER.
      TMP - AIR TEMPERATURE.    DP   - DEWPOINT TEMPERATURE.
      RH  - RELATIVE HUMIDITY.  PRES - PRESSURE.
      HX  - HEAT INDEX.         WCI  - WIND CHILL INDEX.
$



USA.gov is the U.S. government's official web portal to all federal, state and local government web resources and services.